Key statistics
Satellite FALCON 9 R/B at a glance.
Uptime
1764
Days in orbit
Revolutions
≈ 15.5
Per day
Orbit
LEO
Low Earth Orbit
Inclination
26.5
Latest
Satellite identification and parameters
Extended collection of information and parameters for FALCON 9 R/B.
Object identification
Identified? True
Debris? False
Object name: FALCON 9 R/B
International designator: 2020-048B
Object number (NORAD): 45921
Object ID (CCSDS): 45921
Country: UNITED STATES OF AMERICA (US)
Current information (Y/N): Y
RCS size: LARGE
Orbital parameters
Decay date: May 19, 2025
Period: 93.192 minutes
Inclination: 26.4509 deg
SMA: 6808.957 km
Apoapsis: 748.711 km
Periapsis: 112.932 km
RAAN: 261.3138 deg
Eccentricy: 0.046687
Argument of periapsis: 144.3057 deg
Mean anomaly: 316.8299 deg
Mean motion: 15.45190117 rev/day
Mean motion (dot): 0.2166926 rev/day2
B* drag term: 0.00051125 1/REarth
Two-line elements (TLE)
Creation date: May 18, 2025, 11:06 p.m.
Reference frame: TEME
Reference center: EARTH
Epoch: May 18, 2025, 1:41 p.m. UTC
TLE line 0: 0 FALCON 9 R/B
TLE line 1: 1 45921U 20048B 25138.57040454 .21669260 -93497-5 51125-3 0 9990
TLE line 2: 2 45921 26.4509 261.3138 0466870 144.3057 316.8299 15.45190117 57743
Live tracking on map
Satellite FALCON 9 R/B has decayed and is no longer in orbit. No tracking available.
In-orbit conjunctions
Satellite FALCON 9 R/B has decayed and is no longer in orbit. No conjunctions available.
Associated space launch
ANASIS-II is South Korea's first dedicated military satellite.
FALCON 9 R/B was lifted into orbit during the mission ‘Falcon 9 Block 5 | ANASIS-II’, on board a Falcon 9 space rocket.
The launch took place on July 20, 2020, 9:30 p.m. from Space Launch Complex 40.
For more information about the launch, click the button.
Falcon 9 Block 5 | ANASIS-II
Agency: N/A
Status: Launch Successful
Launch date: July 20, 2020, 9:30 p.m. UTC
Rocket: Falcon 9
Launch pad: Space Launch Complex 40
Location: Cape Canaveral SFS, FL, USA
...
Newsletter sign-up
Weekly statistics, charts and insights to help you stay on top of the space industry.
